User: anonymous   Login
Location: Plymouth
(43.7570°N, 71.6890°W)
Time: 16:37:21
(UTC-04:00)
Language:

Cosmos 2016 Rocket - Orbit

View from above orbital plane
View from above orbital plane
View from above satellite
View from above satellite

Ground track
Ground track

The orbit data is extracted from the following two-line orbital elements,

1 19922U 89028B   17088.53927114 -.00000032 +00000-0 -48249-4 0  9994
2 19922 082.9569 125.8835 0037942 108.2255 252.3038 13.77190612406015
Epoch (UTC): 29 March 2017 12:56:33
Eccentricity: 0.0037942
inclination: 82.9569°
perigee height: 946 km
apogee height: 1002 km
right ascension of ascending node: 125.8835°
argument of perigee: 108.2255°
revolutions per day: 13.77190612
mean anomaly at epoch: 252.3038°
orbit number at epoch: 40601

The dashed part of the orbit path shows where the satellite is in the earth's shadow,  

DLR